Regional Weather Roundup
Issued by NWS

Home | Current Version | Previous Version | Graphics & Text | Print | Product List | Glossary On
Versions: 1 2 3 4 5 6 7 8 9 10 11 12 13 14 15 16 17 18 19 20 21 22 23 24 25 26 27 28 29 30 31 32 33 34 35 36 37 38 39 40 41 42 43 44 45 46 47 48 49 50
000
ASUS44 KMEG 111310
RWRTN
TENNESSEE HOURLY STATE WEATHER ROUNDUP
NATIONAL WEATHER SERVICE MEMPHIS TN
700 AM CST THU FEB 11 2016

TNZ002-004-019-021-049-052-054-088>092-111400-
WEST TENNESSEE

CITY           SKY/WX    TMP DP  RH WIND       PRES   REMARKS
MEMPHIS INTL   PTCLDY    30  14  51 E7        30.09R WCI  23
NWS MEMPHIS      N/A     29 N/A N/A MISG        N/A
JACKSON        CLEAR     26  16  65 E6        30.16R WCI  19
DYERSBURG      CLOUDY    25  18  74 E10       30.19R WCI  15
UNION CITY     CLEAR     25  19  80 NE7       30.19R WCI  17
PARIS          CLOUDY    25  18  74 NE9       30.21R WCI  15
LEXINGTON      CLEAR     23  18  80 NE6       30.17R WCI  16
$$

TNZ008-025-027-028-033-062-065-066-111400-
NORTH MIDDLE TENNESSEE

CITY           SKY/WX    TMP DP  RH WIND       PRES   REMARKS
NASHVILLE      CLOUDY    27  20  75 NE3       30.23R
CLARKSVILLE    CLOUDY    26  21  81 E7        30.23R WCI  18
SMYRNA         CLOUDY    25  22  88 NE5       30.24R WCI  19
COOKEVILLE     CLOUDY    25  19  80 CALM      30.19R
CROSSVILLE     CLOUDY    24  18  77 CALM      30.14R
$$

TNZ061-075-076-078-094-096-097-111400-
SOUTH MIDDLE TENNESSEE

CITY           SKY/WX    TMP DP  RH WIND       PRES   REMARKS
FAYETTEVILLE   CLEAR     25  19  80 NE6       30.16R WCI  18
TULLAHOMA      CLEAR     25  19  80 NE3       30.17R
WINCHESTER     PTCLDY    25  18  74 E5        30.18R WCI  19
MCMINNVILLE    CLOUDY    25  21  86 NE7       30.18R WCI  17
COLUMBIA       CLEAR     25  25 100 NE5       30.17S WCI  19
SHELBYVILLE    CLEAR     25  21  86 N3        30.20R
$$

TNZ017-018-042-046-047-111400-
NORTHEAST TENNESSEE

CITY           SKY/WX    TMP DP  RH WIND       PRES   REMARKS
TRI CITIES     CLOUDY    21  12  68 W5        30.17R WCI  15
$$

TNZ012-013-036-069-073-074-111400-
CENTRAL EAST TENNESSEE

CITY           SKY/WX    TMP DP  RH WIND       PRES   REMARKS
KNOXVILLE      CLOUDY    27  19  72 SW3       30.19R
OAK RIDGE      CLOUDY    28  18  66 W3        30.21R
GATLINBURG     CLOUDY    25  16  68 CALM      30.18R
MORRISTOWN     PTSUNNY   23  18  80 CALM      30.16S
$$

TNZ083-085-099-111400-
SOUTHEAST TENNESSEE

CITY           SKY/WX    TMP DP  RH WIND       PRES   REMARKS
CHATTANOOGA    MOCLDY    29  20  69 CALM      30.20R
$$

SKY/WX REPORTED AS FAIR MEANS FEW OR NO CLOUDS BELOW
12 THOUSAND FEET.




USA.gov is the U.S. government's official web portal to all federal, state and local government web resources and services.